CW4541 Weather Reports


time (UTC)temp
C
wind
direction
speed
KPH
gust
KPH
rain 1hr
cm
rain 24hr
cm
rain mn
cm
humidity
%
barometer
mb
20260831070605 12 80 0.0 1.6 0.00 1.22 0.00 68 1023.8
20260831070110 12 58 0.0 0.0 0.00 1.22 0.00 69 1023.8
20260831060605 12 35 0.0 0.0 0.00 1.22 0.00 73 1022.5
20260831060110 12 35 0.0 0.0 0.00 1.22 0.00 72 1022.5
20260831050606 12 213 0.0 0.0 0.00 1.22 1.22 72 1022.5
20260831040606 13 192 0.0 0.0 0.00 1.22 1.22 67 1022.7
20260831040111 12 192 0.0 0.0 0.00 1.22 1.22 66 1022.7
20260831030606 15 192 0.0 0.0 0.00 1.22 1.22 55 1021.9
20260831030112 15 192 0.0 0.0 0.00 1.22 1.22 55 1021.7
20260831020607 17 188 0.0 9.7 0.00 1.22 1.22 46 1021.3
20260831020112 17 128 1.6 9.7 0.00 1.22 1.22 50 1021.1
20260831010606 19 274 1.6 4.8 0.00 1.22 1.22 38 1021.0
20260831010112 19 272 1.6 8.0 0.00 1.22 1.22 38 1020.9
20260831000606 20 278 4.8 22.5 0.00 1.22 1.22 39 1020.0
20260831000112 20 272 9.7 22.5 0.00 1.22 1.22 39 1020.0
20260830230606 20 219 0.0 4.8 0.00 1.22 1.22 50 1019.0
20260830230112 20 229 0.0 4.8 0.00 1.22 1.22 52 1019.0
20260830220112 17 262 0.0 1.6 0.05 1.22 1.22 72 1019.4
20260830210606 15 252 1.6 11.3 0.79 1.19 1.19 74 1019.7
20260830210112 14 312 3.2 11.3 0.76 1.17 1.17 73 1019.8
20260830200606 17 319 0.0 3.2 0.41 0.41 0.41 72 1019.2
20260830200112 17 319 0.0 4.8 0.41 0.41 0.41 69 1019.3
20260830190606 23 19 8.0 24.1 0.00 0.00 0.00 33 1020.1
20260830190111 24 18 8.0 22.5 0.00 0.00 0.00 27 1020.1
20260830180605 26 207 3.2 16.1 0.00 0.00 0.00 27 1020.4
20260830180112 26 196 4.8 16.1 0.00 0.00 0.00 27 1020.6
20260830170606 23 200 3.2 19.3 0.00 0.00 0.00 35 1021.3
20260830170111 22 212 3.2 19.3 0.00 0.00 0.00 36 1021.3
20260830160605 20 15 8.0 14.5 0.00 0.00 0.00 42 1021.2
20260830160112 20 15 4.8 16.1 0.00 0.00 0.00 44 1021.2
20260830150606 18 14 3.2 16.1 0.00 0.00 0.00 52 1021.0
20260830150111 18 15 3.2 16.1 0.00 0.00 0.00 53 1021.0
20260830140112 15 177 3.2 9.7 0.00 0.00 0.00 63 1020.9
20260830130605 13 151 1.6 9.7 0.00 0.00 0.00 67 1020.7
20260830130111 13 151 0.0 12.9 0.00 0.00 0.00 68 1020.6
20260830120605 13 149 8.0 19.3 0.00 0.00 0.00 65 1019.8
20260830120110 13 149 9.7 19.3 0.00 0.00 0.00 66 1019.9
20260830110606 13 135 3.2 9.7 0.00 0.00 0.00 68 1019.7
20260830110111 13 168 1.6 12.9 0.00 0.00 0.00 68 1019.8
20260830100605 13 163 1.6 9.7 0.00 0.00 0.00 65 1019.8
20260830090605 15 274 4.8 9.7 0.00 0.00 0.00 60 1020.6
20260830090111 15 271 3.2 8.0 0.00 0.00 0.00 60 1020.6
20260830080605 15 187 1.6 12.9 0.00 0.00 0.00 54 1019.5
20260830080111 15 178 3.2 12.9 0.00 0.00 0.00 54 1019.7